Weather in Bolyshevo

Russia / Smolensk Oblast     55°34′33″N   33°35′30″E
temp.,
°C
wind,
m/s
gust,
m/s
humid.,
%
clouds,
%
prec.,
mm/h
press.,
hPa
HPBL,
m
23 september, thu
thu2300:00+4nne1399100 0.1 1013230
03:00+4ene1299100 0.2 1013163
06:00+4ene1298100 0.1 1013136
09:00+5e2396100 0.2 1013179
12:00+8se238879 0.1 1012495
15:00+7sw348490 0.1 1012613
18:00+6sw23915 0.0 101057
21:00+4ssw369491 0.0 1010212
24 september, fri
fri2400:00+4s3990100 0.0 1007473
03:00+4s51191100 0.0 1005635
06:00+4sse61289100 0.0 1002728
09:00+5se71388100 0.0 999940
12:00+5se81496100 2.6 9971009
15:00+5se71395100 3.9 996940
18:00+6se61195100 0.5 997673
21:00+6sse599795 0.6 999395
25 september, sat
sat2500:00+5sse369986 0.0 1001163
03:00+6ne1298100 0.8 1000106
06:00+7ssw239398 0.0 100494
09:00+7ssw2394100 0.0 1006238
12:00+8sw3588100 0.0 1007461
15:00+10sw3583100 0.1 1008706
18:00+9sw3689100 0.1 1009281
21:00+7ssw359578 0.1 1009102
26 september, sun
sun2600:00+8ssw2697100 0.3 1009338
03:00+8wsw3799100 1.8 1009386
06:00+9nw51197100 1.3 1010666
09:00+9nnw61291100 1.6 1013790
12:00+9nnw61088100 0.4 1015795
15:00+12nnw6106846 0.7 10171387
18:00+10nnw5107685 0.2 1019622
21:00+7nnw4109077 0.3 1021406
27 september, mon
mon2700:00+6nnw4109733 0.0 1022296
03:00+5nnw389891 0.0 1023202
06:00+7n499096 0.0 1024370
09:00+7n3888100 0.0 1025380
12:00+9ne4681100 0.0 1026565
15:00+10nne4674100 0.1 1027989
18:00+9ne488497 0.1 1028539
21:00+6ne379732 0.1 1029187